[[{"header":{"parameterUnit":"m.s-1","parameterCategory":1,"la1":30.2991,"la2":30.254,"lo1":-89.0895,"lo2":-89.0444,"dy":0.0017,"dx":0.0017,"nx":28,"ny":28,"refTime":"2023-07-25T03:00:00:Z","depth":0,"parameterNumber":2,"parameterNumberName":"U-component_of_WINDS"},"data":[0,0,0,0,0,0,0,0,0,0,0,0,0,0,0,0,0,0,0,0,0,0,0,0,0,0,0,0,0,0,0,0,0,0,0,0,0,0,0,0,0,0,0,0,0,0,0,0,0,0,0,0,0,0,0,0,0,0,2.0175,2.0176,0,2.0268,2.0269,2.027,2.0272,2.027,2.0269,2.0268,2.0364,2.0367,2.0371,0,0,0,0,0,0,0,0,0,0,0,0,0,1.9999,2.0002,2.0175,2.0176,2.0177,2.0267,2.0269,2.027,2.0272,2.027,2.0269,2.0268,2.0362,2.0367,2.0371,0,0,0,0,0,0,0,0,0,0,0,0,0,2.0082,2.0003,2.0175,2.0189,2.0191,2.0267,2.0269,2.027,2.0272,2.027,2.0269,2.0267,2.0361,2.0366,2.0372,2.044,0,0,2.0388,2.039,0,0,0,0,0,0,0,0,2.0077,2.0088,2.0186,2.0188,2.0191,2.0256,2.0241,2.0327,2.0273,2.0241,2.0268,2.0266,2.0329,2.0337,2.0358,2.0444,2.0448,2.0389,2.0392,2.0394,2.0396,0,0,0,0,0,0,0,2.0071,2.0084,2.0212,2.0187,2.019,2.019,2.02,2.0258,2.0294,2.0244,2.0244,2.0255,2.033,2.0353,2.0361,2.045,2.0388,2.0393,2.0397,2.0399,2.0593,2.0595,0,0,0,0,0,0,2.0063,2.0079,2.0209,2.0214,2.0128,2.0195,2.0206,2.0237,2.0293,2.03,2.0257,2.0255,2.0345,2.0354,2.0364,2.0445,2.0394,2.0399,2.0402,2.0591,2.0593,2.0595,0,0,0,0,0,0,2.0059,2.0074,2.0205,2.0147,2.0164,2.02,2.0235,2.024,2.0262,2.0303,2.0309,2.0273,2.0344,2.0356,2.042,2.0448,2.0402,2.0407,2.0589,2.0592,2.0594,2.0609,0,0,0,0,0,0,2.0054,2.0073,2.0099,2.0148,2.0167,2.026,2.0236,2.0243,2.0272,2.027,2.032,2.0327,2.0343,2.0412,2.0425,2.0455,2.0411,2.0586,2.059,2.0593,2.0606,2.0612,2.0617,0,0,0,0,0,2.0047,2.0101,2.0101,2.0116,2.0201,2.0261,2.0272,2.029,2.0274,2.0301,2.0326,2.0325,2.0444,2.0418,2.0434,2.0465,2.0585,2.0589,2.0593,2.0604,2.0611,2.0617,0,0,0,0,0,0,2.0055,2.0107,2.0108,2.0178,2.0215,2.0262,2.0296,2.0298,2.034,2.0337,2.0358,2.0369,2.0432,2.0456,2.0427,2.0533,2.0512,2.052,2.0515,2.0522,2.0528,2.052,2.0415,0,0,0,0,0,2.0065,2.011,2.0153,2.0211,2.0229,2.0259,2.0287,2.0297,2.0336,2.0352,2.0382,2.0421,2.0466,2.0496,2.054,2.061,2.062,2.0639,2.0645,2.0649,2.0655,2.0691,2.07,2.0609,2.0609,2.0609,0,0,2.0086,2.012,2.0147,2.0213,2.0243,2.0289,2.0273,2.0322,2.0356,2.036,2.0421,2.0445,2.0489,2.0555,2.0586,2.0576,2.0682,2.0655,2.0658,2.0661,2.0696,2.0705,2.0712,2.0612,2.0612,2.0611,0,0,2.0147,2.0178,2.0228,2.0258,2.0303,2.0323,2.0335,2.0381,2.0396,2.0458,2.0461,2.0501,2.058,2.061,2.0636,2.0707,2.0706,2.0721,2.0749,2.0784,2.0791,2.0797,2.082,2.0828,2.0727,2.0727,2.0727,0,2.0167,2.0235,2.0254,2.0302,2.033,2.0336,2.0386,2.0415,2.0472,2.0491,2.048,2.0577,2.0607,2.068,2.0696,2.0718,2.0731,2.0714,2.0789,2.0795,2.0801,2.0823,2.0832,2.0728,2.0728,2.0728,2.0728,0,2.0257,2.0304,2.0339,2.0394,2.0426,2.0475,2.05,2.0531,2.0538,2.0558,2.062,2.0657,2.0707,2.0726,2.0734,2.0799,2.0791,2.0784,2.0763,2.0811,2.0832,2.084,2.073,2.0729,2.0729,2.0729,0,0,2.0325,2.0387,2.04,2.0423,2.0473,2.051,2.0559,2.0608,2.0632,2.0672,2.0713,2.0778,2.0771,2.0801,2.0813,2.0844,2.0894,2.0833,2.0834,2.0841,2.0965,2.0968,2.0978,2.0895,2.0897,2.0898,2.096,0,2.0389,2.0476,2.0493,2.0568,2.0611,2.0616,2.0658,2.0693,2.0713,2.0752,2.0774,2.0819,2.0808,2.0826,2.0857,2.0881,2.0919,2.0877,2.0931,2.0933,2.0918,2.0989,2.0994,2.1051,2.0969,2.0971,2.0972,0,2.0475,2.0515,2.0594,2.0636,2.0655,2.0693,2.0738,2.0776,2.0814,2.0827,2.0858,2.0866,2.0916,2.0894,2.0963,2.0934,2.0957,2.0973,2.0975,2.098,2.0954,2.0993,2.107,2.1077,2.0985,2.0984,2.0983,0,2.0514,2.0588,2.0644,2.0664,2.0715,2.0741,2.0764,2.0801,2.0829,2.0868,2.0886,2.0932,2.0956,2.0991,2.101,2.0993,2.1076,2.1056,2.1087,2.1086,2.1103,2.1101,2.1182,2.1121,2.1121,2.1121,2.1121,0,2.0582,2.063,2.0661,2.0696,2.0749,2.0768,2.082,2.0842,2.0875,2.0913,2.0921,2.0956,2.0981,2.102,2.1036,2.1089,2.11,2.1111,2.1114,2.1109,2.1107,2.1123,2.1119,2.1123,2.1123,2.1122,2.1122,0,2.0633,2.0657,2.0718,2.0761,2.0773,2.0809,2.0846,2.0879,2.0899,2.0947,2.0959,2.099,2.1036,2.1059,2.1117,2.1128,2.1187,2.1189,2.1173,2.1174,2.1202,2.1198,2.1294,2.1307,2.124,2.124,2.1241,0,2.0675,2.0711,2.0757,2.0783,2.0806,2.0848,2.0875,2.0895,2.0924,2.097,2.0997,2.1043,2.1081,2.1155,2.1182,2.1226,2.1228,2.1258,2.1234,2.1227,2.1225,2.1222,2.1225,2.1262,2.1262,2.1263,2.1263,0,2.0744,2.0754,2.0793,2.0837,2.0869,2.0904,2.0939,2.096,2.0985,2.1017,2.1064,2.1093,2.1151,2.1196,2.1242,2.1265,2.1268,2.1271,2.128,2.1274,2.1262,2.1266,2.1182,2.1268,2.1268,2.1267,2.1267,2.1267,2.079,2.0822,2.0859,2.0902,2.093,2.0962,2.0994,2.1018,2.1057,2.1105,2.1115,2.1164,2.12,2.1261,2.1286,2.1324,2.1317,2.1331,2.1334,2.1336,2.1336,2.1258,2.1332,2.1332,2.1332,2.1332,2.1332,0,2.0858,2.0882,2.0922,2.0969,2.1003,2.1003,2.1041,2.1069,2.1112,2.1146,2.1182,2.1235,2.1278,2.1309,2.1353,2.1378,2.138,2.1388,2.1386,2.139,2.1341,2.1328,2.1385,2.1385,2.1385,2.1385,2.1385,2.1385,2.0898,2.095,2.0964,2.103,2.1053,2.1101,2.1122,2.1151,2.1178,2.1236,2.1272,2.1291,2.1323,2.137,2.1409,2.1417,2.1432,2.144,2.1447,2.14,2.1394,2.1389,2.1376,2.1444,2.1444,2.1494,2.1494,2.1494]},{"header":{"parameterUnit":"m.s-1","parameterCategory":1,"la1":30.2991,"la2":30.254,"lo1":-89.0895,"lo2":-89.0444,"dy":0.0017,"dx":0.0017,"nx":28,"ny":28,"refTime":"2023-07-25T03:00:00:Z","depth":0,"parameterNumber":3,"parameterNumberName":"V-component_of_WINDS"},"data":[0,0,0,0,0,0,0,0,0,0,0,0,0,0,0,0,0,0,0,0,0,0,0,0,0,0,0,0,0,0,0,0,0,0,0,0,0,0,0,0,0,0,0,0,0,0,0,0,0,0,0,0,0,0,0,0,0,0,2.1732,2.1731,0,2.1677,2.1677,2.1676,2.1602,2.1601,2.16,2.1599,2.1543,2.1543,2.1543,0,0,0,0,0,0,0,0,0,0,0,0,0,2.1771,2.177,2.1732,2.1731,2.173,2.1677,2.1677,2.1676,2.1603,2.1601,2.16,2.1598,2.1544,2.1543,2.1543,0,0,0,0,0,0,0,0,0,0,0,0,0,2.1739,2.177,2.1732,2.1687,2.1683,2.1678,2.1677,2.1676,2.1603,2.1601,2.1599,2.1598,2.1544,2.1543,2.1543,2.1577,0,0,2.1541,2.1541,0,0,0,0,0,0,0,0,2.1741,2.1737,2.1695,2.169,2.1685,2.1645,2.167,2.1643,2.1603,2.1633,2.1599,2.1597,2.1579,2.1575,2.1569,2.1574,2.1572,2.1541,2.1541,2.1541,2.1541,0,0,0,0,0,0,0,2.1743,2.1739,2.171,2.1694,2.1688,2.167,2.1663,2.1664,2.1617,2.1631,2.1625,2.162,2.1576,2.157,2.1567,2.1571,2.1541,2.1541,2.154,2.154,2.1598,2.16,0,0,0,0,0,0,2.1752,2.1742,2.1712,2.1709,2.1709,2.1671,2.1663,2.166,2.1617,2.1608,2.1621,2.1616,2.1571,2.1568,2.1565,2.16,2.1541,2.154,2.154,2.1596,2.1598,2.16,0,0,0,0,0,0,2.1753,2.175,2.1714,2.1724,2.1718,2.1672,2.1668,2.166,2.1653,2.161,2.1601,2.1624,2.157,2.1566,2.1574,2.1597,2.154,2.154,2.1594,2.1597,2.1599,2.1671,0,0,0,0,0,0,2.1754,2.1751,2.1764,2.1724,2.1717,2.1724,2.167,2.166,2.1653,2.1646,2.161,2.1602,2.1568,2.1575,2.1573,2.1595,2.1539,2.1592,2.1595,2.1598,2.1666,2.1676,2.1684,0,0,0,0,0,2.1756,2.1787,2.1765,2.1762,2.1733,2.1726,2.1722,2.1682,2.1655,2.1667,2.1639,2.1603,2.1595,2.1576,2.1574,2.1596,2.159,2.1594,2.1598,2.1662,2.1674,2.1684,0,0,0,0,0,0,2.183,2.1781,2.1756,2.1775,2.1755,2.1713,2.1728,2.1696,2.1683,2.1678,2.1629,2.1621,2.1635,2.1616,2.1596,2.1625,2.1587,2.1591,2.1636,2.1647,2.1656,2.1659,2.1539,0,0,0,0,0,2.1849,2.1848,2.1805,2.1825,2.1817,2.1774,2.177,2.174,2.1718,2.1709,2.1682,2.1661,2.1653,2.1649,2.164,2.1663,2.1653,2.1677,2.1686,2.1694,2.1697,2.1705,2.1715,2.1614,2.1614,2.1614,0,0,2.1887,2.186,2.1862,2.1839,2.1821,2.182,2.1767,2.1769,2.1768,2.171,2.1715,2.1694,2.1667,2.1682,2.1688,2.1667,2.1723,2.1699,2.1705,2.1704,2.171,2.172,2.1728,2.1617,2.1616,2.1616,0,0,2.1956,2.1936,2.195,2.1932,2.1904,2.1875,2.1879,2.1842,2.1825,2.1829,2.1785,2.1782,2.1771,2.1753,2.1743,2.1803,2.1769,2.1801,2.1847,2.1856,2.1863,2.187,2.1889,2.1897,2.1805,2.1806,2.1806,0,2.2007,2.2004,2.1961,2.1965,2.1956,2.1902,2.1915,2.19,2.1871,2.1865,2.1843,2.1825,2.1804,2.1813,2.1827,2.1822,2.1822,2.1805,2.1866,2.1872,2.1878,2.1895,2.1903,2.1809,2.1809,2.1809,2.1808,0,2.2067,2.2066,2.2081,2.2052,2.2045,2.2053,2.2011,2.2008,2.1979,2.1952,2.1956,2.1929,2.1912,2.1912,2.1885,2.1916,2.1904,2.1875,2.1835,2.1892,2.1908,2.1914,2.1815,2.1814,2.1813,2.1812,0,0,2.2181,2.2128,2.2134,2.212,2.2085,2.2082,2.2088,2.2071,2.2068,2.205,2.2052,2.2042,2.2014,2.2002,2.1972,2.198,2.2026,2.1949,2.1947,2.1962,2.2056,2.2077,2.2086,2.2004,2.2005,2.2006,2.2058,0,2.2242,2.2248,2.2209,2.2225,2.2222,2.2171,2.2175,2.2154,2.2129,2.2122,2.2094,2.2087,2.2052,2.2044,2.2049,2.202,2.2044,2.2016,2.2004,2.2004,2.201,2.2095,2.2117,2.2168,2.2064,2.2065,2.2066,0,2.2313,2.2297,2.2313,2.2275,2.2272,2.2277,2.2257,2.2252,2.2225,2.2206,2.2192,2.2157,2.2158,2.2122,2.2122,2.2103,2.2096,2.2081,2.2081,2.2077,2.2037,2.2091,2.2183,2.219,2.2075,2.2075,2.2074,0,2.2392,2.2375,2.2381,2.2371,2.2327,2.2331,2.2313,2.2285,2.2277,2.2259,2.2253,2.2236,2.2227,2.2214,2.2174,2.2152,2.2178,2.2139,2.2161,2.2162,2.2167,2.2167,2.2257,2.2166,2.2166,2.2166,2.2166,0,2.2462,2.2474,2.2416,2.242,2.243,2.2385,2.2396,2.2373,2.2348,2.2345,2.2301,2.2299,2.2249,2.2241,2.221,2.2213,2.221,2.2193,2.2185,2.2196,2.2198,2.219,2.2185,2.2168,2.2168,2.2167,2.2167,0,2.2552,2.2514,2.2517,2.2475,2.2465,2.2474,2.2437,2.2438,2.241,2.2408,2.2404,2.236,2.2348,2.2308,2.2287,2.2266,2.2278,2.2263,2.2287,2.2281,2.2305,2.2302,2.2391,2.2399,2.2305,2.2306,2.2307,0,2.2598,2.2605,2.2564,2.2559,2.2543,2.2536,2.2526,2.2482,2.2474,2.2443,2.2448,2.2432,2.2418,2.2402,2.2367,2.235,2.2333,2.2365,2.233,2.234,2.233,2.2329,2.2329,2.2372,2.2373,2.2374,2.2375,0,2.2684,2.2665,2.2653,2.2635,2.2625,2.2609,2.2589,2.2588,2.2538,2.2531,2.2518,2.2507,2.2485,2.2469,2.2446,2.2426,2.2392,2.2387,2.239,2.2401,2.2414,2.2405,2.2306,2.2385,2.2384,2.2383,2.2382,2.2382,2.2752,2.2755,2.2726,2.2714,2.2694,2.2677,2.2675,2.2647,2.2636,2.2614,2.2588,2.2578,2.2549,2.2515,2.2497,2.2488,2.2469,2.2475,2.2476,2.2478,2.2483,2.2417,2.2484,2.2483,2.2483,2.2483,2.2483,0,2.2833,2.2812,2.2802,2.2775,2.2766,2.2735,2.2711,2.2705,2.2697,2.2673,2.2659,2.2644,2.2628,2.2592,2.2572,2.2572,2.2555,2.2568,2.2567,2.2562,2.2502,2.2499,2.2582,2.2582,2.2582,2.2581,2.2581,2.2581,2.2875,2.2878,2.2854,2.2847,2.2824,2.2814,2.2803,2.2786,2.2767,2.2752,2.2738,2.2715,2.2685,2.2663,2.2647,2.2636,2.263,2.2648,2.2632,2.2576,2.2567,2.2558,2.2555,2.2648,2.2648,2.2693,2.2693,2.2694]}]]